FW7370 Weather Reports


Display with metric or nautical units.
time (UTC)temp
F
wind
direction
speed
MPH
gust
MPH
rain 1hr
in
rain 24hr
in
rain mn
in
humidity
%
barometer
mb
20260507054127 0 102 4.0 12.0 0.00 0.00 0.00 1026.6
20260507053627 0 74 4.0 12.0 0.00 0.00 0.00 1026.2
20260507051542 0 109 8.0 14.0 0.00 0.00 0.00 1026.7
20260507051042 0 95 5.0 12.0 0.00 0.00 0.00 1026.4
20260507050542 0 93 6.0 12.0 0.00 0.00 0.00 1026.6
20260507045527 0 18 5.0 12.0 0.00 0.00 0.00 1026.6
20260507045026 0 86 5.0 12.0 0.00 0.00 0.00 1027.3
20260507044526 0 92 4.0 12.0 0.00 0.00 0.00 1027.2
20260507044026 0 86 3.0 12.0 0.00 0.00 0.00 1026.9
20260507043526 0 90 3.0 12.0 0.00 0.00 0.00 1027.3
20260507043026 0 72 6.0 12.0 0.00 0.00 0.00 1027.0
20260507042527 0 95 4.0 12.0 0.00 0.00 0.00 1027.3
20260507042026 0 57 4.0 12.0 0.00 0.00 0.00 1027.4
20260507041526 0 38 3.0 13.0 0.00 0.00 0.00 1027.2
20260507041026 0 54 4.0 13.0 0.00 0.00 0.00 1027.4
20260507035456 0 66 3.0 13.0 0.00 0.00 0.00 1027.3
20260507034956 0 77 3.0 13.0 0.00 0.00 0.00 1027.6
20260507034456 0 78 3.0 13.0 0.00 0.00 0.00 1027.6
20260507033441 0 88 5.0 14.0 0.00 0.00 0.00 1027.6
20260507032426 0 106 9.0 14.0 0.00 0.00 0.00 1027.7
20260507031926 0 96 8.0 14.0 0.00 0.00 0.00 1027.6
20260507031426 0 103 6.0 13.0 0.00 0.00 0.00 1027.7
20260507030926 0 97 6.0 13.0 0.00 0.00 0.00 1027.6
20260507030426 0 90 5.0 15.0 0.00 0.00 0.00 1027.7
20260507025926 0 94 6.0 15.0 0.00 0.00 0.00 1028.1
20260507025426 0 98 6.0 15.0 0.00 0.00 0.00 1027.9
20260507024926 0 66 6.0 15.0 0.00 0.00 0.00 1027.9
20260507024426 0 109 8.0 15.0 0.00 0.00 0.00 1028.2
20260507023926 0 100 5.0 12.0 0.00 0.00 0.00 1028.1
20260507023426 0 95 3.0 11.0 0.00 0.00 0.00 1027.8
20260507022926 0 37 4.0 11.0 0.00 0.00 0.00 1027.7
20260507021910 0 97 3.0 11.0 0.00 0.00 0.00 1027.9
20260507021410 0 29 6.0 11.0 0.00 0.00 0.00 1027.5
20260507020910 0 78 4.0 11.0 0.00 0.00 0.00 1028.0
20260507020410 0 46 4.0 11.0 0.00 0.00 0.00 1027.7
20260507015910 0 85 3.0 11.0 0.00 0.00 0.00 1027.9
20260507015410 0 79 5.0 12.0 0.00 0.00 0.00 1027.9
20260507014910 0 38 6.0 12.0 0.00 0.00 0.00 1027.6
20260507014410 0 90 6.0 12.0 0.00 0.00 0.00 1027.7
20260507013910 0 79 6.0 12.0 0.00 0.00 0.00 1027.6
20260507013410 0 72 6.0 12.0 0.00 0.00 0.00 1027.6
20260507012910 0 81 4.0 11.0 0.00 0.00 0.00 1027.5
20260507012410 0 61 4.0 11.0 0.00 0.00 0.00 1027.8
20260507011355 0 79 4.0 11.0 0.00 0.00 0.00 1027.9
20260507010340 0 41 2.0 11.0 0.00 0.00 0.00 1027.4
20260507005840 0 58 3.0 11.0 0.00 0.00 0.00 1027.1
20260507005340 0 82 4.0 11.0 0.00 0.00 0.00 1027.2
20260507004839 0 71 5.0 11.0 0.00 0.00 0.00 1027.4
20260507004339 0 91 6.0 11.0 0.00 0.00 0.00 1027.1
20260507003839 0 102 3.0 11.0 0.00 0.00 0.00 1027.4
20260507002824 0 71 4.0 14.0 0.00 0.00 0.00 1027.1
20260507002323 0 87 5.0 15.0 0.00 0.00 0.00 1027.0
20260507001822 0 84 6.0 15.0 0.00 0.00 0.00 1027.0
20260507001322 0 106 9.0 14.0 0.00 0.00 0.00 1026.9
20260507000822 0 101 8.0 12.0 0.00 0.00 0.00 1027.2
20260507000322 0 101 5.0 12.0 0.00 0.00 0.00 1027.0
20260506235822 0 91 6.0 12.0 0.00 0.00 0.00 1026.8
20260506235322 0 85 6.0 14.0 0.00 0.00 0.00 1026.8
20260506234305 0 87 5.0 14.0 0.00 0.00 0.00 1026.6
20260506233805 0 121 7.0 14.0 0.00 0.00 0.00 1026.4
20260506233305 0 65 4.0 14.0 0.00 0.00 0.00 1026.5
20260506232805 0 87 7.0 14.0 0.00 0.00 0.00 1026.4
20260506232306 0 96 6.0 14.0 0.00 0.00 0.00 1026.4
20260506231805 0 102 7.0 13.0 0.00 0.00 0.00 1026.1
20260506231305 0 112 6.0 13.0 0.00 0.00 0.00 1026.2
20260506230804 0 85 5.0 13.0 0.00 0.00 0.00 1026.1
20260506230304 0 84 7.0 12.0 0.00 0.00 0.00 1026.3
20260506225803 0 114 9.0 12.0 0.00 0.00 0.00 1026.3
20260506225305 0 105 8.0 12.0 0.00 0.00 0.00 1026.2
20260506224247 0 75 5.0 13.0 0.00 0.00 0.00 1025.8
20260506223747 0 108 8.0 13.0 0.00 0.00 0.00 1025.7
20260506223247 0 91 6.0 13.0 0.00 0.00 0.00 1025.7
20260506222232 0 80 7.0 13.0 0.00 0.00 0.00 1025.8
20260506221732 0 97 8.0 15.0 0.00 0.00 0.00 1025.5
20260506220716 0 52 6.0 16.0 0.00 0.00 0.00 1025.5
20260506215144 0 102 7.0 14.0 0.00 0.00 0.00 1025.8
20260506214644 0 83 5.0 14.0 0.00 0.00 0.00 1025.4
20260506213627 0 103 8.0 17.0 0.00 0.00 0.00 1025.3
20260506213127 0 105 7.0 13.0 0.00 0.00 0.00 1025.5
20260506212111 0 87 8.0 16.0 0.00 0.00 0.00 1025.3
20260506211611 0 86 6.0 19.0 0.00 0.00 0.00 1025.5
20260506211111 0 88 8.0 19.0 0.00 0.00 0.00 1025.2
20260506210056 0 126 9.0 15.0 0.00 0.00 0.00 1025.3
20260506205556 0 110 9.0 16.0 0.00 0.00 0.00 1025.3
20260506205056 0 119 9.0 20.0 0.00 0.00 0.00 1025.5
20260506204556 0 117 10.0 16.0 0.00 0.00 0.00 1025.3
20260506204056 0 109 10.0 17.0 0.00 0.00 0.00 1025.1
20260506203556 0 104 6.0 17.0 0.00 0.00 0.00 1025.1
20260506203056 0 90 8.0 15.0 0.00 0.00 0.00 1025.1
20260506202556 0 111 8.0 15.0 0.00 0.00 0.00 1025.1
20260506202056 0 111 8.0 19.0 0.00 0.00 0.00 1025.2
20260506201556 0 113 8.0 19.0 0.00 0.00 0.00 1025.2
20260506201057 0 123 9.0 19.0 0.00 0.00 0.00 1025.3
20260506200556 0 112 11.0 19.0 0.00 0.00 0.00 1025.3
20260506200057 0 114 12.0 17.0 0.00 0.00 0.00 1025.2
20260506195556 0 105 8.0 16.0 0.00 0.00 0.00 1025.5
20260506194540 0 104 10.0 17.0 0.00 0.00 0.00 1025.4
20260506193525 0 108 11.0 19.0 0.00 0.00 0.00 1025.6
20260506193025 0 108 8.0 19.0 0.00 0.00 0.00 1025.6
20260506192525 0 114 10.0 16.0 0.00 0.00 0.00 1025.6
20260506192026 0 108 8.0 16.0 0.00 0.00 0.00 1025.6
20260506191526 0 119 9.0 16.0 0.00 0.00 0.00 1025.7
20260506191025 0 120 10.0 15.0 0.00 0.00 0.00 1025.7
20260506190524 0 113 9.0 16.0 0.00 0.00 0.00 1025.7
20260506190024 0 97 9.0 16.0 0.00 0.00 0.00 1025.7
20260506185524 0 107 7.0 16.0 0.00 0.00 0.00 1025.7
20260506185024 0 108 11.0 16.0 0.00 0.00 0.00 1026.0
20260506184525 0 111 10.0 15.0 0.00 0.00 0.00 1026.0
20260506184025 0 101 8.0 17.0 0.00 0.00 0.00 1026.4
20260506182454 0 129 12.0 20.0 0.00 0.00 0.00 1026.7
20260506181954 0 124 11.0 19.0 0.00 0.00 0.00 1026.1
20260506181453 0 122 10.0 16.0 0.00 0.00 0.00 1026.6
20260506180954 0 123 11.0 21.0 0.00 0.00 0.00 1026.5
20260506180454 0 117 10.0 21.0 0.00 0.00 0.00 1026.3
20260506175953 0 126 12.0 19.0 0.00 0.00 0.00 1026.4
20260506175454 0 126 13.0 19.0 0.00 0.00 0.00 1026.8
20260506174954 0 130 11.0 16.0 0.00 0.00 0.00 1026.4
20260506174454 0 122 11.0 19.0 0.00 0.00 0.00 1026.8
20260506173954 0 131 11.0 19.0 0.00 0.00 0.00 1026.4
20260506173454 0 122 12.0 20.0 0.00 0.00 0.00 1026.8
20260506172953 0 115 14.0 20.0 0.00 0.00 0.00 1027.0
20260506172454 0 126 13.0 23.0 0.00 0.00 0.00 1026.9
20260506171954 0 123 10.0 19.0 0.00 0.00 0.00 1027.2
20260506171453 0 114 11.0 16.0 0.00 0.00 0.00 1027.2
20260506170953 0 119 11.0 15.0 0.00 0.00 0.00 1027.0
20260506165937 0 125 8.0 19.0 0.00 0.00 0.00 1027.3
20260506165436 0 119 9.0 19.0 0.00 0.00 0.00 1027.4
20260506164936 0 100 9.0 17.0 0.00 0.00 0.00 1027.4
20260506164436 0 133 11.0 16.0 0.00 0.00 0.00 1027.7
20260506163935 0 115 10.0 15.0 0.00 0.00 0.00 1027.3
20260506163435 0 129 10.0 17.0 0.00 0.00 0.00 1027.3
20260506162935 0 127 11.0 17.0 0.00 0.00 0.00 1027.3
20260506162435 0 115 11.0 24.0 0.00 0.00 0.00 1027.4
20260506161935 0 119 10.0 24.0 0.00 0.00 0.00 1027.5
20260506160919 0 121 13.0 20.0 0.00 0.00 0.00 1027.6
20260506160419 0 122 14.0 19.0 0.00 0.00 0.00 1027.5
20260506155919 0 118 10.0 17.0 0.00 0.00 0.00 1027.9
20260506155419 0 128 8.0 17.0 0.00 0.00 0.00 1027.8
20260506154919 0 108 8.0 17.0 0.00 0.00 0.00 1028.2
20260506154419 0 125 10.0 17.0 0.00 0.00 0.00 1027.8
20260506153919 0 116 11.0 17.0 0.00 0.00 0.00 1028.0
20260506153418 0 123 9.0 20.0 0.00 0.00 0.00 1027.9
20260506152918 0 138 9.0 20.0 0.00 0.00 0.00 1028.3
20260506152417 0 114 10.0 19.0 0.00 0.00 0.00 1028.3
20260506151917 0 125 10.0 20.0 0.00 0.00 0.00 1028.2
20260506150901 0 115 10.0 16.0 0.00 0.00 0.00 1028.3
20260506150401 0 118 9.0 16.0 0.00 0.00 0.00 1028.0
20260506145900 0 110 6.0 19.0 0.00 0.00 0.00 1028.2
20260506145400 0 131 12.0 17.0 0.00 0.00 0.00 1028.2
20260506144900 0 112 10.0 19.0 0.00 0.00 0.00 1028.2
20260506144400 0 125 8.0 19.0 0.00 0.00 0.00 1028.2
20260506143344 0 109 8.0 17.0 0.00 0.00 0.00 1028.3
20260506142844 0 112 10.0 16.0 0.00 0.00 0.00 1028.3
20260506142344 0 113 12.0 14.0 0.00 0.00 0.00 1028.1
20260506141329 0 115 12.0 22.0 0.00 0.00 0.00 1028.1
20260506140829 0 109 9.0 17.0 0.00 0.00 0.00 1027.9
20260506135813 0 135 10.0 16.0 0.00 0.00 0.00 1028.0
20260506135313 0 109 11.0 17.0 0.00 0.00 0.00 1028.3
20260506134813 0 104 10.0 20.0 0.00 0.00 0.00 1028.3
20260506134313 0 116 12.0 21.0 0.00 0.00 0.00 1028.3
20260506133257 0 108 8.0 17.0 0.00 0.00 0.00 1028.2
20260506132757 0 113 8.0 15.0 0.00 0.00 0.00 1028.3
20260506132256 0 99 9.0 15.0 0.00 0.00 0.00 1028.2
20260506131756 0 83 7.0 17.0 0.00 0.00 0.00 1028.3
20260506131256 0 109 11.0 20.0 0.00 0.00 0.00 1028.4
20260506130756 0 113 9.0 20.0 0.00 0.00 0.00 1028.3
20260506130256 0 101 13.0 19.0 0.00 0.00 0.00 1028.2
20260506125756 0 76 8.0 14.0 0.00 0.00 0.00 1028.0
20260506125255 0 94 9.0 17.0 0.00 0.00 0.00 1027.9
20260506124755 0 98 9.0 17.0 0.00 0.00 0.00 1028.1
20260506124255 0 108 8.0 19.0 0.00 0.00 0.00 1027.9
20260506123755 0 107 12.0 19.0 0.00 0.00 0.00 1028.0
20260506123254 0 90 7.0 15.0 0.00 0.00 0.00 1027.8
20260506122238 0 118 7.0 19.0 0.00 0.00 0.00 1028.0
20260506120708 0 83 6.0 16.0 0.00 0.00 0.00 1028.0
20260506120208 0 109 9.0 17.0 0.00 0.00 0.00 1027.9
20260506115708 0 108 8.0 17.0 0.00 0.00 0.00 1027.6
20260506115208 0 125 11.0 17.0 0.00 0.00 0.00 1027.8
20260506114708 0 115 13.0 16.0 0.00 0.00 0.00 1027.7
20260506114208 0 89 9.0 17.0 0.00 0.00 0.00 1027.5
20260506113707 0 93 7.0 17.0 0.00 0.00 0.00 1027.6
20260506113207 0 112 9.0 15.0 0.00 0.00 0.00 1027.5
20260506112707 0 110 7.0 14.0 0.00 0.00 0.00 1027.6
20260506112207 0 114 8.0 16.0 0.00 0.00 0.00 1027.3
20260506111706 0 109 10.0 16.0 0.00 0.00 0.00 1027.3
20260506111206 0 90 5.0 12.0 0.00 0.00 0.00 1027.4
20260506110706 0 83 5.0 13.0 0.00 0.00 0.00 1027.3
20260506105650 0 96 7.0 12.0 0.00 0.00 0.00 1027.2
20260506105150 0 47 5.0 12.0 0.00 0.00 0.00 1027.1
20260506104650 0 77 5.0 12.0 0.00 0.00 0.00 1026.9
20260506104150 0 104 6.0 12.0 0.00 0.00 0.00 1027.2
20260506103650 0 70 5.0 12.0 0.00 0.00 0.00 1027.1
20260506102634 0 88 5.0 12.0 0.00 0.00 0.00 1026.9
20260506102134 0 90 6.0 12.0 0.00 0.00 0.00 1026.7
20260506101633 0 72 4.0 12.0 0.00 0.00 0.00 1026.5
20260506101133 0 78 4.0 12.0 0.00 0.00 0.00 1026.9
20260506100633 0 75 4.0 12.0 0.00 0.00 0.00 1026.8
20260506095617 0 96 5.0 13.0 0.00 0.00 0.00 1027.1
20260506095117 0 77 5.0 13.0 0.00 0.00 0.00 1026.7
20260506094617 0 86 5.0 13.0 0.00 0.00 0.00 1026.5
20260506094117 0 76 5.0 13.0 0.00 0.00 0.00 1026.5
20260506093617 0 52 5.0 15.0 0.00 0.00 0.00 1026.7
20260506093117 0 93 7.0 15.0 0.00 0.00 0.00 1026.7
20260506092617 0 90 7.0 13.0 0.00 0.00 0.00 1026.7
20260506092117 0 81 5.0 13.0 0.00 0.00 0.00 1026.6
20260506091617 0 67 5.0 13.0 0.00 0.00 0.00 1026.8
20260506091117 0 66 7.0 13.0 0.00 0.00 0.00 1026.5
20260506085602 0 72 7.0 13.0 0.00 0.00 0.00 1026.6
20260506084547 0 111 8.0 15.0 0.00 0.00 0.00 1026.3
20260506084047 0 111 8.0 15.0 0.00 0.00 0.00 1026.2
20260506083546 0 82 6.0 15.0 0.00 0.00 0.00 1026.6
20260506083046 0 87 8.0 17.0 0.00 0.00 0.00 1026.4
20260506082546 0 98 9.0 17.0 0.00 0.00 0.00 1026.2
20260506082046 0 118 12.0 17.0 0.00 0.00 0.00 1026.4
20260506081031 0 79 6.0 14.0 0.00 0.00 0.00 1026.6
20260506073515 0 115 9.0 15.0 0.00 0.00 0.00 1026.0
20260506073015 0 110 8.0 17.0 0.00 0.00 0.00 1025.9
20260506072515 0 106 10.0 17.0 0.00 0.00 0.00 1026.2
20260506072015 0 116 12.0 17.0 0.00 0.00 0.00 1025.9
20260506071515 0 92 7.0 17.0 0.00 0.00 0.00 1026.2
20260506071015 0 93 8.0 17.0 0.00 0.00 0.00 1026.2
20260506062444 0 113 12.0 19.0 0.00 0.00 0.00 1026.2
20260506061944 0 95 6.0 15.0 0.00 0.00 0.00 1026.5
20260506061444 0 96 7.0 16.0 0.00 0.00 0.00 1026.3
20260506060943 0 103 7.0 16.0 0.00 0.00 0.00 1026.2